,,PA_Meas_PMT16A,,PR_Meas_QMR101_102,,RH_Meas_QMH101,,SR_Meas_QMS101,,TA_Meas_QMH101,,GenWind,,GenWind,
time,status,PA,status,PR,status,RH,status,SR,status,TA,status,DirAvg,status,SpdAvg,
2012-07-17, 00:00:05,VALID,919.272,VALID,0,VALID,97.3586,VALID,0,VALID,19.2377,VALID,35,VALID,0,
2012-07-17, 00:01:05,VALID,919.268,VALID,0,VALID,97.3586,VALID,0,VALID,19.2168,VALID,36,VALID,0,
2012-07-17, 00:02:05,VALID,919.281,VALID,0,VALID,97.3663,VALID,0,VALID,19.2153,VALID,35,VALID,0,
2012-07-17, 00:03:05,VALID,919.24,VALID,0,VALID,97.3815,VALID,0,VALID,19.2767,VALID,35,VALID,0,
2012-07-17, 00:04:05,VALID,919.213,VALID,0,VALID,97.3815,VALID,0.107441,VALID,19.2348,VALID,36,VALID,0,
2012-07-17, 00:05:05,VALID,919.203,VALID,0,VALID,97.3739,VALID,0.107441,VALID,19.2558,VALID,36,VALID,0,
2012-07-17, 00:06:05,VALID,919.217,VALID,0,VALID,97.412,VALID,0.107441,VALID,19.2528,VALID,35,VALID,0,
2012-07-17, 00:07:05,VALID,919.195,VALID,0,VALID,97.4044,VALID,0.107441,VALID,19.2948,VALID,35,VALID,0,
2012-07-17, 00:08:05,VALID,919.181,VALID,0,VALID,97.3968,VALID,0,VALID,19.3143,VALID,35,VALID,0,
2012-07-17, 00:09:05,VALID,919.186,VALID,0,VALID,97.4044,VALID,0,VALID,19.3547,VALID,36,VALID,0,
2012-07-17, 00:10:05,VALID,919.19,VALID,0,VALID,97.4044,VALID,0,VALID,19.3547,VALID,35,VALID,0,
2012-07-17, 00:11:05,VALID,919.174,VALID,0,VALID,97.412,VALID,0,VALID,19.3952,VALID,36,VALID,0,
2012-07-17, 00:12:05,VALID,919.143,VALID,0,VALID,97.4196,VALID,0,VALID,19.3742,VALID,36,VALID,0,
2012-07-17, 00:13:05,VALID,919.112,VALID,0,VALID,97.4196,VALID,0,VALID,19.4147,VALID,36,VALID,0,
2012-07-17, 00:14:05,VALID,919.099,VALID,0,VALID,97.412,VALID,0,VALID,19.3742,VALID,36,VALID,0,
2012-07-17, 00:15:05,VALID,919.097,VALID,0,VALID,97.4273,VALID,0,VALID,19.4132,VALID,35,VALID,0,
2012-07-17, 00:16:05,VALID,919.074,VALID,0,VALID,97.4196,VALID,0,VALID,19.4132,VALID,36,VALID,0,
2012-07-17, 00:17:05,VALID,919.057,VALID,0,VALID,97.4273,VALID,0,VALID,19.4132,VALID,36,VALID,0,
2012-07-17, 00:18:05,VALID,919.096,VALID,0,VALID,97.4349,VALID,0,VALID,19.4313,VALID,36,VALID,0,
2012-07-17, 00:19:05,VALID,919.107,VALID,0,VALID,97.4273,VALID,0,VALID,19.4313,VALID,36,VALID,0,
2012-07-17, 00:20:05,VALID,919.101,VALID,0,VALID,97.4273,VALID,0,VALID,19.4732,VALID,35,VALID,0,
2012-07-17, 00:21:05,VALID,919.091,VALID,0,VALID,97.4349,VALID,0,VALID,19.4523,VALID,36,VALID,0,
2012-07-17, 00:22:05,VALID,919.063,VALID,0,VALID,97.4273,VALID,0,VALID,19.4523,VALID,36,VALID,0,
2012-07-17, 00:23:05,VALID,919.093,VALID,0,VALID,97.412,VALID,0,VALID,19.4313,VALID,35,VALID,0,
2012-07-17, 00:24:05,VALID,919.088,VALID,0,VALID,97.412,VALID,0,VALID,19.4718,VALID,36,VALID,0,
2012-07-17, 00:25:05,VALID,919.097,VALID,0,VALID,97.4273,VALID,0,VALID,19.4718,VALID,35,VALID,0,
2012-07-17, 00:26:05,VALID,919.087,VALID,0,VALID,97.4273,VALID,0,VALID,19.4718,VALID,35,VALID,0,
2012-07-17, 00:27:05,VALID,919.105,VALID,0,VALID,97.4349,VALID,0,VALID,19.4298,VALID,36,VALID,0,
2012-07-17, 00:28:05,VALID,919.107,VALID,0,VALID,97.4349,VALID,0,VALID,19.4732,VALID,36,VALID,0,
2012-07-17, 00:29:05,VALID,919.091,VALID,0,VALID,97.4349,VALID,0,VALID,19.4327,VALID,35,VALID,0,
2012-07-17, 00:30:05,VALID,919.127,VALID,0,VALID,97.4273,VALID,0,VALID,19.4327,VALID,36,VALID,0,
2012-07-17, 00:31:05,VALID,919.125,VALID,0,VALID,97.4273,VALID,0,VALID,19.4132,VALID,36,VALID,0,
2012-07-17, 00:32:05,VALID,919.083,VALID,0,VALID,97.4273,VALID,0,VALID,19.4327,VALID,35,VALID,0,
2012-07-17, 00:33:05,VALID,919.101,VALID,0,VALID,97.412,VALID,0,VALID,19.4132,VALID,36,VALID,0,
2012-07-17, 00:34:05,VALID,919.083,VALID,0,VALID,97.4349,VALID,0,VALID,19.4132,VALID,36,VALID,0,
2012-07-17, 00:35:05,VALID,919.085,VALID,0,VALID,97.4273,VALID,0,VALID,19.3923,VALID,36,VALID,0,
2012-07-17, 00:36:05,VALID,919.106,VALID,0,VALID,97.4349,VALID,0,VALID,19.3937,VALID,35,VALID,0,
2012-07-17, 00:37:05,VALID,919.076,VALID,0,VALID,97.4501,VALID,0,VALID,19.3937,VALID,36,VALID,0,
2012-07-17, 00:38:05,VALID,919.054,VALID,0,VALID,97.4501,VALID,0,VALID,19.3742,VALID,36,VALID,0,
2012-07-17, 00:39:05,VALID,919.09,VALID,0,VALID,97.4349,VALID,0,VALID,19.3547,VALID,36,VALID,0,
2012-07-17, 00:40:04,VALID,919.046,VALID,0,VALID,97.4425,VALID,0,VALID,19.3547,VALID,35,VALID,0,
2012-07-17, 00:41:05,VALID,919.045,VALID,0,VALID,97.4349,VALID,0,VALID,19.3352,VALID,36,VALID,0,
2012-07-17, 00:42:05,VALID,918.979,VALID,0,VALID,97.412,VALID,0,VALID,19.3352,VALID,36,VALID,0,
2012-07-17, 00:43:05,VALID,918.977,VALID,0,VALID,97.4425,VALID,0,VALID,19.3157,VALID,36,VALID,0,
2012-07-17, 00:44:05,VALID,918.969,VALID,0,VALID,97.4273,VALID,0,VALID,19.2962,VALID,35,VALID,0,
2012-07-17, 00:45:05,VALID,918.961,VALID,0,VALID,97.4425,VALID,0,VALID,19.3172,VALID,35,VALID,0,
2012-07-17, 00:46:05,VALID,919,VALID,0,VALID,97.4273,VALID,0,VALID,19.2753,VALID,36,VALID,0,
2012-07-17, 00:47:05,VALID,918.95,VALID,0,VALID,97.4273,VALID,0,VALID,19.2962,VALID,36,VALID,0,
2012-07-17, 00:48:05,VALID,918.956,VALID,0,VALID,97.4425,VALID,0,VALID,19.2962,VALID,36,VALID,0,
2012-07-17, 00:49:05,VALID,918.934,VALID,0,VALID,97.4425,VALID,0,VALID,19.2962,VALID,35,VALID,0,
2012-07-17, 00:50:05,VALID,918.932,VALID,0,VALID,97.4501,VALID,0,VALID,19.2767,VALID,35,VALID,0,
2012-07-17, 00:51:05,VALID,918.946,VALID,0,VALID,97.4273,VALID,0,VALID,19.2767,VALID,35,VALID,0,
2012-07-17, 00:52:05,VALID,918.956,VALID,0,VALID,97.4273,VALID,0,VALID,19.2558,VALID,36,VALID,0,
2012-07-17, 00:53:05,VALID,918.98,VALID,0,VALID,97.412,VALID,0,VALID,19.2767,VALID,35,VALID,0,
2012-07-17, 00:54:05,VALID,919.001,VALID,0,VALID,97.4349,VALID,0,VALID,19.2767,VALID,36,VALID,0,
2012-07-17, 00:55:05,VALID,919.034,VALID,0,VALID,97.4425,VALID,0,VALID,19.2363,VALID,36,VALID,0,
2012-07-17, 00:56:05,VALID,919.014,VALID,0,VALID,97.4273,VALID,0,VALID,19.2572,VALID,35,VALID,0,
2012-07-17, 00:57:05,VALID,919.003,VALID,0,VALID,97.4273,VALID,0,VALID,19.2377,VALID,36,VALID,0,
2012-07-17, 00:58:05,VALID,919.024,VALID,0,VALID,97.4349,VALID,0,VALID,19.2572,VALID,35,VALID,0,
2012-07-17, 00:59:05,VALID,918.976,VALID,0,VALID,97.4349,VALID,0,VALID,19.2572,VALID,36,VALID,0,
2012-07-17, 01:00:05,VALID,918.964,VALID,0,VALID,97.4425,VALID,0,VALID,19.2767,VALID,35,VALID,0,
2012-07-17, 01:01:05,VALID,918.943,VALID,0,VALID,97.4425,VALID,0,VALID,19.2767,VALID,36,VALID,0,
2012-07-17, 01:02:05,VALID,918.954,VALID,0,VALID,97.4425,VALID,0,VALID,19.2572,VALID,35,VALID,0,
2012-07-17, 01:03:05,VALID,918.967,VALID,0,VALID,97.4501,VALID,0,VALID,19.2767,VALID,35,VALID,0,
2012-07-17, 01:04:05,VALID,918.944,VALID,0,VALID,97.4577,VALID,0,VALID,19.2767,VALID,36,VALID,0,
2012-07-17, 01:05:05,VALID,918.939,VALID,0,VALID,97.4654,VALID,0,VALID,19.2767,VALID,35,VALID,0,
2012-07-17, 01:06:05,VALID,918.927,VALID,0,VALID,97.4273,VALID,0,VALID,19.2767,VALID,36,VALID,0,
2012-07-17, 01:07:05,VALID,918.937,VALID,0,VALID,97.4501,VALID,0,VALID,19.3172,VALID,35,VALID,0,
2012-07-17, 01:08:05,VALID,918.93,VALID,0,VALID,97.4349,VALID,0,VALID,19.2962,VALID,35,VALID,0,
2012-07-17, 01:09:05,VALID,918.931,VALID,0,VALID,97.4425,VALID,0,VALID,19.2962,VALID,35,VALID,0,
2012-07-17, 01:10:05,VALID,918.926,VALID,0,VALID,97.4654,VALID,0,VALID,19.2962,VALID,35,VALID,0,
2012-07-17, 01:11:05,VALID,918.908,VALID,0,VALID,97.4577,VALID,0,VALID,19.2962,VALID,36,VALID,0,
2012-07-17, 01:12:05,VALID,918.906,VALID,0,VALID,97.4425,VALID,0,VALID,19.2962,VALID,36,VALID,0,
2012-07-17, 01:13:05,VALID,918.872,VALID,0,VALID,97.473,VALID,0,VALID,19.2977,VALID,36,VALID,0,
2012-07-17, 01:14:05,VALID,918.888,VALID,0,VALID,97.4425,VALID,0,VALID,19.2377,VALID,35,VALID,0,
2012-07-17, 01:15:05,VALID,918.886,VALID,0,VALID,97.4654,VALID,0,VALID,19.2182,VALID,36,VALID,0,
2012-07-17, 01:16:05,VALID,918.854,VALID,0,VALID,97.4577,VALID,0,VALID,19.1987,VALID,35,VALID,0,
2012-07-17, 01:17:05,VALID,918.855,VALID,0,VALID,97.4425,VALID,0,VALID,19.1987,VALID,35,VALID,0,
2012-07-17, 01:18:05,VALID,918.851,VALID,0,VALID,97.4501,VALID,0,VALID,19.1987,VALID,35,VALID,0,
2012-07-17, 01:19:05,VALID,918.779,VALID,0,VALID,97.4577,VALID,0,VALID,19.1987,VALID,36,VALID,0,
2012-07-17, 01:20:05,VALID,918.793,VALID,0,VALID,97.4654,VALID,0,VALID,19.1792,VALID,35,VALID,0,
2012-07-17, 01:21:05,VALID,918.739,VALID,0,VALID,97.4654,VALID,0,VALID,19.1792,VALID,36,VALID,0,
2012-07-17, 01:22:05,VALID,918.737,VALID,0,VALID,97.4806,VALID,0,VALID,19.1597,VALID,35,VALID,0,
2012-07-17, 01:23:05,VALID,918.71,VALID,0,VALID,97.4501,VALID,0,VALID,19.1792,VALID,35,VALID,0,
2012-07-17, 01:24:05,VALID,918.676,VALID,0,VALID,97.473,VALID,0,VALID,19.1597,VALID,36,VALID,0,
2012-07-17, 01:25:05,VALID,918.669,VALID,0,VALID,97.4806,VALID,0,VALID,19.1193,VALID,35,VALID,0,
2012-07-17, 01:26:05,VALID,918.647,VALID,0,VALID,97.4654,VALID,0,VALID,19.1207,VALID,36,VALID,0,
2012-07-17, 01:27:05,VALID,918.671,VALID,0,VALID,97.4806,VALID,0,VALID,19.1207,VALID,36,VALID,0,
2012-07-17, 01:28:05,VALID,918.659,VALID,0,VALID,97.4425,VALID,0,VALID,19.1207,VALID,35,VALID,0,
2012-07-17, 01:29:05,VALID,918.621,VALID,0,VALID,97.4806,VALID,0,VALID,19.0817,VALID,36,VALID,0,
2012-07-17, 01:30:05,VALID,918.603,VALID,0,VALID,97.4806,VALID,0,VALID,19.0817,VALID,36,VALID,0,
2012-07-17, 01:31:05,VALID,918.588,VALID,0,VALID,97.4654,VALID,0,VALID,19.0622,VALID,35,VALID,0,
2012-07-17, 01:32:05,VALID,918.578,VALID,0,VALID,97.4806,VALID,0,VALID,19.1027,VALID,36,VALID,0,
2012-07-17, 01:33:05,VALID,918.551,VALID,0,VALID,97.473,VALID,0,VALID,19.1012,VALID,35,VALID,0,
2012-07-17, 01:34:05,VALID,918.536,VALID,0,VALID,97.4806,VALID,0,VALID,19.1207,VALID,35,VALID,0,
2012-07-17, 01:35:05,VALID,918.553,VALID,0,VALID,97.4959,VALID,0,VALID,19.1402,VALID,35,VALID,0,
2012-07-17, 01:36:05,VALID,918.536,VALID,0,VALID,97.4882,VALID,0,VALID,19.1207,VALID,36,VALID,0,
2012-07-17, 01:37:05,VALID,918.534,VALID,0,VALID,97.4882,VALID,0,VALID,19.1012,VALID,35,VALID,0,
2012-07-17, 01:38:05,VALID,918.538,VALID,0,VALID,97.5111,VALID,0,VALID,19.1207,VALID,35,VALID,0,
2012-07-17, 01:39:05,VALID,918.568,VALID,0,VALID,97.4959,VALID,0,VALID,19.1207,VALID,36,VALID,0,
2012-07-17, 01:40:05,VALID,918.521,VALID,0,VALID,97.4959,VALID,0,VALID,19.1402,VALID,36,VALID,0,
2012-07-17, 01:41:05,VALID,918.551,VALID,0,VALID,97.4959,VALID,0,VALID,19.1207,VALID,36,VALID,0,
2012-07-17, 01:42:05,VALID,918.563,VALID,0,VALID,97.5035,VALID,0,VALID,19.1207,VALID,35,VALID,0,
2012-07-17, 01:43:05,VALID,918.53,VALID,0,VALID,97.5187,VALID,0,VALID,19.1417,VALID,36,VALID,0,
2012-07-17, 01:44:05,VALID,918.543,VALID,0,VALID,97.5111,VALID,0,VALID,19.1612,VALID,36,VALID,0,
2012-07-17, 01:45:05,VALID,918.519,VALID,0,VALID,97.5187,VALID,0,VALID,19.1207,VALID,36,VALID,0,
2012-07-17, 01:46:05,VALID,918.497,VALID,0,VALID,97.5111,VALID,0,VALID,19.1402,VALID,36,VALID,0,
2012-07-17, 01:47:05,VALID,918.518,VALID,0,VALID,97.5035,VALID,0,VALID,19.1807,VALID,36,VALID,0,
2012-07-17, 01:48:05,VALID,918.49,VALID,0,VALID,97.5187,VALID,0,VALID,19.1792,VALID,36,VALID,0,
2012-07-17, 01:49:05,VALID,918.502,VALID,0,VALID,97.5035,VALID,0,VALID,19.1987,VALID,35,VALID,0,
2012-07-17, 01:50:05,VALID,918.504,VALID,0,VALID,97.5111,VALID,0,VALID,19.1987,VALID,35,VALID,0,
2012-07-17, 01:51:05,VALID,918.496,VALID,0,VALID,97.5111,VALID,0,VALID,19.2182,VALID,35,VALID,0,
2012-07-17, 01:52:05,VALID,918.523,VALID,0,VALID,97.5035,VALID,0,VALID,19.2182,VALID,36,VALID,0,
2012-07-17, 01:53:05,VALID,918.467,VALID,0,VALID,97.5035,VALID,0,VALID,19.2377,VALID,36,VALID,0,
2012-07-17, 01:54:05,VALID,918.478,VALID,0,VALID,97.5187,VALID,0,VALID,19.2168,VALID,35,VALID,0,
2012-07-17, 01:55:05,VALID,918.442,VALID,0,VALID,97.4959,VALID,0,VALID,19.2377,VALID,36,VALID,0,
2012-07-17, 01:56:05,VALID,918.43,VALID,0,VALID,97.5264,VALID,0,VALID,19.2572,VALID,36,VALID,0,
2012-07-17, 01:57:05,VALID,918.424,VALID,0,VALID,97.5187,VALID,0,VALID,19.2363,VALID,35,VALID,0,
2012-07-17, 01:58:05,VALID,918.418,VALID,0,VALID,97.5264,VALID,0,VALID,19.2572,VALID,36,VALID,0,
2012-07-17, 01:59:05,VALID,918.402,VALID,0,VALID,97.5187,VALID,0,VALID,19.2168,VALID,36,VALID,0,
2012-07-17, 02:00:05,VALID,918.386,VALID,0,VALID,97.5111,VALID,0,VALID,19.2377,VALID,36,VALID,0,
2012-07-17, 02:01:05,VALID,918.381,VALID,0,VALID,97.5035,VALID,0,VALID,19.1597,VALID,36,VALID,0,
2012-07-17, 02:02:05,VALID,918.345,VALID,0,VALID,97.4882,VALID,0,VALID,19.0803,VALID,35,VALID,0,
2012-07-17, 02:03:05,VALID,918.345,VALID,0,VALID,97.5187,VALID,0,VALID,19.1012,VALID,36,VALID,0,
2012-07-17, 02:04:05,VALID,918.303,VALID,0,VALID,97.5264,VALID,0,VALID,19.1027,VALID,35,VALID,0,
2012-07-17, 02:05:05,VALID,918.299,VALID,0,VALID,97.534,VALID,0,VALID,19.1012,VALID,36,VALID,0,
2012-07-17, 02:06:05,VALID,918.287,VALID,0,VALID,97.5035,VALID,0,VALID,19.0817,VALID,36,VALID,0,
2012-07-17, 02:07:05,VALID,918.269,VALID,0,VALID,97.5035,VALID,0,VALID,19.1012,VALID,36,VALID,0,
2012-07-17, 02:08:05,VALID,918.285,VALID,0,VALID,97.5187,VALID,0,VALID,19.0803,VALID,36,VALID,0,
2012-07-17, 02:09:05,VALID,918.309,VALID,0,VALID,97.5111,VALID,0,VALID,19.1417,VALID,36,VALID,0,
2012-07-17, 02:10:05,VALID,918.236,VALID,0,VALID,97.5111,VALID,0,VALID,19.1417,VALID,36,VALID,0,
2012-07-17, 02:11:05,VALID,918.216,VALID,0,VALID,97.5264,VALID,0,VALID,19.1012,VALID,36,VALID,0,
2012-07-17, 02:12:05,VALID,918.189,VALID,0,VALID,97.5264,VALID,0,VALID,19.1012,VALID,36,VALID,0,
2012-07-17, 02:13:05,VALID,918.175,VALID,0,VALID,97.5264,VALID,0,VALID,19.1207,VALID,36,VALID,0,
2012-07-17, 02:14:05,VALID,918.17,VALID,0,VALID,97.5111,VALID,0,VALID,19.1402,VALID,35,VALID,0,
2012-07-17, 02:15:05,VALID,918.108,VALID,0,VALID,97.5187,VALID,0,VALID,19.1207,VALID,36,VALID,0,
2012-07-17, 02:16:05,VALID,918.143,VALID,0,VALID,97.534,VALID,0,VALID,19.1402,VALID,36,VALID,0,
2012-07-17, 02:17:05,VALID,918.114,VALID,0,VALID,97.534,VALID,0,VALID,19.1402,VALID,36,VALID,0,
2012-07-17, 02:18:05,VALID,918.101,VALID,0,VALID,97.5264,VALID,0,VALID,19.0998,VALID,36,VALID,0,
2012-07-17, 02:19:05,VALID,918.12,VALID,0,VALID,97.5187,VALID,0,VALID,19.1222,VALID,35,VALID,0,
2012-07-17, 02:20:05,VALID,918.129,VALID,0,VALID,97.534,VALID,0,VALID,19.1222,VALID,36,VALID,0,
2012-07-17, 02:21:05,VALID,918.117,VALID,0,VALID,97.534,VALID,0,VALID,19.0817,VALID,36,VALID,0,
2012-07-17, 02:22:05,VALID,918.103,VALID,0,VALID,97.534,VALID,0,VALID,19.1012,VALID,35,VALID,0,
2012-07-17, 02:23:05,VALID,918.081,VALID,0,VALID,97.534,VALID,0,VALID,19.1012,VALID,35,VALID,0,
2012-07-17, 02:24:05,VALID,918.084,VALID,0,VALID,97.5264,VALID,0,VALID,19.0998,VALID,36,VALID,0,
2012-07-17, 02:25:05,VALID,918.05,VALID,0,VALID,97.5492,VALID,0,VALID,19.1222,VALID,36,VALID,0,
2012-07-17, 02:26:04,VALID,918.075,VALID,0,VALID,97.5416,VALID,0,VALID,19.0788,VALID,35,VALID,0,
2012-07-17, 02:27:04,VALID,918.037,VALID,0,VALID,97.5492,VALID,0,VALID,19.1207,VALID,35,VALID,0,
2012-07-17, 02:28:04,VALID,918.03,VALID,0,VALID,97.5111,VALID,0,VALID,19.1417,VALID,36,VALID,0,
2012-07-17, 02:29:04,VALID,917.997,VALID,0,VALID,97.534,VALID,0,VALID,19.0608,VALID,36,VALID,0,
2012-07-17, 02:30:04,VALID,917.933,VALID,0,VALID,97.5416,VALID,0,VALID,19.1446,VALID,35,VALID,0,
2012-07-17, 02:31:04,VALID,917.952,VALID,0,VALID,97.534,VALID,0,VALID,19.1027,VALID,36,VALID,0,
2012-07-17, 02:32:04,VALID,917.929,VALID,0,VALID,97.534,VALID,0,VALID,19.1027,VALID,36,VALID,0,
2012-07-17, 02:33:04,VALID,917.906,VALID,0,VALID,97.5492,VALID,0,VALID,19.0803,VALID,36,VALID,0,
2012-07-17, 02:34:04,VALID,917.899,VALID,0,VALID,97.5416,VALID,0,VALID,19.0803,VALID,36,VALID,0,
2012-07-17, 02:35:04,VALID,917.86,VALID,0,VALID,97.5111,VALID,0,VALID,19.1012,VALID,36,VALID,0,
2012-07-17, 02:36:04,VALID,917.85,VALID,0,VALID,97.5416,VALID,0,VALID,19.1222,VALID,36,VALID,0,
2012-07-17, 02:37:04,VALID,917.846,VALID,0,VALID,97.5492,VALID,0,VALID,19.1012,VALID,36,VALID,0,
2012-07-17, 02:38:04,VALID,917.8,VALID,0,VALID,97.5645,VALID,0,VALID,19.1012,VALID,36,VALID,0,
2012-07-17, 02:39:04,VALID,917.79,VALID,0,VALID,97.5416,VALID,0,VALID,19.1012,VALID,35,VALID,0,
2012-07-17, 02:40:04,VALID,917.788,VALID,0,VALID,97.5569,VALID,0,VALID,19.1431,VALID,36,VALID,0,
2012-07-17, 02:41:04,VALID,917.776,VALID,0,VALID,97.5264,VALID,0,VALID,19.1207,VALID,35,VALID,0,
2012-07-17, 02:42:04,VALID,917.742,VALID,0,VALID,97.5569,VALID,0,VALID,19.1417,VALID,36,VALID,0,
2012-07-17, 02:43:04,VALID,917.782,VALID,0,VALID,97.534,VALID,0,VALID,19.1207,VALID,35,VALID,0,
2012-07-17, 02:44:04,VALID,917.734,VALID,0,VALID,97.5797,VALID,0,VALID,19.1207,VALID,35,VALID,0,
2012-07-17, 02:45:04,VALID,917.744,VALID,0,VALID,97.5645,VALID,0,VALID,19.1012,VALID,36,VALID,0,
2012-07-17, 02:46:04,VALID,917.7,VALID,0,VALID,97.5569,VALID,0,VALID,19.1207,VALID,35,VALID,0,
2012-07-17, 02:47:04,VALID,917.694,VALID,0,VALID,97.5645,VALID,0,VALID,19.1222,VALID,35,VALID,0,
2012-07-17, 02:48:04,VALID,917.665,VALID,0,VALID,97.5645,VALID,0,VALID,19.1207,VALID,36,VALID,0,
2012-07-17, 02:49:04,VALID,917.65,VALID,0,VALID,97.5569,VALID,0,VALID,19.1207,VALID,36,VALID,0,
2012-07-17, 02:50:04,VALID,917.636,VALID,0,VALID,97.5721,VALID,0,VALID,19.1207,VALID,35,VALID,0,
2012-07-17, 02:51:04,VALID,917.62,VALID,0,VALID,97.5492,VALID,0,VALID,19.1207,VALID,35,VALID,0,
2012-07-17, 02:52:04,VALID,917.632,VALID,0,VALID,97.5645,VALID,0,VALID,19.1402,VALID,35,VALID,0,
2012-07-17, 02:53:04,VALID,917.62,VALID,0,VALID,97.5645,VALID,0,VALID,19.1402,VALID,36,VALID,0,
2012-07-17, 02:54:04,VALID,917.61,VALID,0,VALID,97.5721,VALID,0,VALID,19.1193,VALID,36,VALID,0,
2012-07-17, 02:55:04,VALID,917.61,VALID,0,VALID,97.5797,VALID,0,VALID,19.1597,VALID,36,VALID,0,
2012-07-17, 02:56:04,VALID,917.609,VALID,0,VALID,97.5645,VALID,0,VALID,19.1402,VALID,36,VALID,0,
2012-07-17, 02:57:04,VALID,917.603,VALID,0,VALID,97.5569,VALID,0,VALID,19.1207,VALID,35,VALID,0,
2012-07-17, 02:58:04,VALID,917.597,VALID,0,VALID,97.5569,VALID,0,VALID,19.1207,VALID,35,VALID,0,
2012-07-17, 02:59:04,VALID,917.573,VALID,0,VALID,97.5721,VALID,0,VALID,19.1207,VALID,36,VALID,0,
2012-07-17, 03:00:04,VALID,917.566,VALID,0,VALID,97.5797,VALID,0,VALID,19.1012,VALID,36,VALID,0,
2012-07-17, 03:01:04,VALID,917.565,VALID,0,VALID,97.5873,VALID,0,VALID,19.0803,VALID,36,VALID,0,
2012-07-17, 03:02:04,VALID,917.574,VALID,0,VALID,97.5645,VALID,0,VALID,19.0817,VALID,35,VALID,0,
2012-07-17, 03:03:04,VALID,917.556,VALID,0,VALID,97.595,VALID,0,VALID,19.1207,VALID,36,VALID,0,
2012-07-17, 03:04:04,VALID,917.585,VALID,0,VALID,97.5797,VALID,0,VALID,19.0817,VALID,36,VALID,0,
2012-07-17, 03:05:04,VALID,917.585,VALID,0,VALID,97.5873,VALID,0,VALID,19.0817,VALID,36,VALID,0,
2012-07-17, 03:06:04,VALID,917.578,VALID,0,VALID,97.5797,VALID,0,VALID,19.0622,VALID,36,VALID,0,
2012-07-17, 03:07:04,VALID,917.598,VALID,0,VALID,97.5873,VALID,0,VALID,19.0817,VALID,36,VALID,0,
2012-07-17, 03:08:04,VALID,917.585,VALID,0,VALID,97.5797,VALID,0,VALID,19.0817,VALID,36,VALID,0,
2012-07-17, 03:09:04,VALID,917.574,VALID,0,VALID,97.5721,VALID,0,VALID,19.0817,VALID,36,VALID,0,
2012-07-17, 03:10:04,VALID,917.547,VALID,0,VALID,97.595,VALID,0,VALID,19.0817,VALID,35,VALID,0,
2012-07-17, 03:11:04,VALID,917.586,VALID,0,VALID,97.5797,VALID,0.107441,VALID,19.0998,VALID,36,VALID,0,
2012-07-17, 03:12:04,VALID,917.543,VALID,0,VALID,97.595,VALID,0.107441,VALID,19.0803,VALID,35,VALID,0,
2012-07-17, 03:13:04,VALID,917.511,VALID,0,VALID,97.6102,VALID,0.107441,VALID,19.1012,VALID,35,VALID,0,
2012-07-17, 03:14:04,VALID,917.52,VALID,0,VALID,97.595,VALID,0.107441,VALID,19.0803,VALID,36,VALID,0,
2012-07-17, 03:15:04,VALID,917.502,VALID,0,VALID,97.595,VALID,0.107441,VALID,19.0803,VALID,36,VALID,0,
2012-07-17, 03:16:04,VALID,917.501,VALID,0,VALID,97.5873,VALID,0.107441,VALID,19.0593,VALID,36,VALID,0,
2012-07-17, 03:17:04,VALID,917.521,VALID,0,VALID,97.595,VALID,0.107441,VALID,19.0608,VALID,36,VALID,0,
2012-07-17, 03:18:04,VALID,917.515,VALID,0,VALID,97.595,VALID,0,VALID,19.0203,VALID,35,VALID,0,
2012-07-17, 03:19:04,VALID,917.51,VALID,0,VALID,97.6102,VALID,0.107441,VALID,19.0398,VALID,35,VALID,0,
2012-07-17, 03:20:04,VALID,917.518,VALID,0,VALID,97.595,VALID,0,VALID,19.0608,VALID,35,VALID,0,
2012-07-17, 03:21:04,VALID,917.524,VALID,0,VALID,97.6026,VALID,0,VALID,19.0803,VALID,36,VALID,0,
2012-07-17, 03:22:04,VALID,917.52,VALID,0,VALID,97.6026,VALID,0.107441,VALID,19.0803,VALID,36,VALID,0,
2012-07-17, 03:23:04,VALID,917.488,VALID,0,VALID,97.6026,VALID,0.107441,VALID,19.1012,VALID,36,VALID,0,
2012-07-17, 03:24:04,VALID,917.48,VALID,0,VALID,97.6102,VALID,0,VALID,19.0803,VALID,36,VALID,0,
2012-07-17, 03:25:04,VALID,917.495,VALID,0,VALID,97.6026,VALID,0.107441,VALID,19.0998,VALID,36,VALID,0,
2012-07-17, 03:26:04,VALID,917.498,VALID,0,VALID,97.6255,VALID,0,VALID,19.1012,VALID,35,VALID,0,
2012-07-17, 03:27:04,VALID,917.498,VALID,0,VALID,97.6178,VALID,0,VALID,19.1207,VALID,36,VALID,0,
2012-07-17, 03:28:04,VALID,917.488,VALID,0,VALID,97.6255,VALID,0,VALID,19.1207,VALID,36,VALID,0,
2012-07-17, 03:29:04,VALID,917.472,VALID,0,VALID,97.6255,VALID,0,VALID,19.1402,VALID,36,VALID,0,
2012-07-17, 03:30:04,VALID,917.487,VALID,0,VALID,97.6178,VALID,0,VALID,19.1402,VALID,35,VALID,0,
2012-07-17, 03:31:04,VALID,917.509,VALID,0,VALID,97.595,VALID,0,VALID,19.1597,VALID,36,VALID,0,
2012-07-17, 03:32:04,VALID,917.538,VALID,0,VALID,97.6178,VALID,0,VALID,19.1807,VALID,36,VALID,0,
2012-07-17, 03:33:04,VALID,917.536,VALID,0,VALID,97.6331,VALID,0,VALID,19.1402,VALID,35,VALID,0,
2012-07-17, 03:34:04,VALID,917.545,VALID,0,VALID,97.6178,VALID,0,VALID,19.1402,VALID,36,VALID,0,
2012-07-17, 03:35:04,VALID,917.516,VALID,0,VALID,97.6178,VALID,0,VALID,19.1402,VALID,36,VALID,0,
2012-07-17, 03:36:04,VALID,917.518,VALID,0,VALID,97.6255,VALID,0,VALID,19.1807,VALID,36,VALID,0,
2012-07-17, 03:37:04,VALID,917.498,VALID,0,VALID,97.6178,VALID,0,VALID,19.1388,VALID,36,VALID,0,
2012-07-17, 03:38:04,VALID,917.522,VALID,0,VALID,97.6178,VALID,0,VALID,19.1388,VALID,36,VALID,0,
2012-07-17, 03:39:04,VALID,917.529,VALID,0,VALID,97.6178,VALID,0,VALID,19.1807,VALID,36,VALID,0,
2012-07-17, 03:40:04,VALID,917.514,VALID,0,VALID,97.6102,VALID,0,VALID,19.1583,VALID,36,VALID,0,
2012-07-17, 03:41:04,VALID,917.516,VALID,0,VALID,97.6255,VALID,0,VALID,19.1807,VALID,36,VALID,0,
2012-07-17, 03:42:04,VALID,917.49,VALID,0,VALID,97.6178,VALID,0,VALID,19.1402,VALID,36,VALID,0,
2012-07-17, 03:43:04,VALID,917.521,VALID,0,VALID,97.6102,VALID,0,VALID,19.1402,VALID,35,VALID,0,
2012-07-17, 03:44:04,VALID,917.51,VALID,0,VALID,97.6331,VALID,0,VALID,19.1612,VALID,36,VALID,0,
2012-07-17, 03:45:04,VALID,917.513,VALID,0,VALID,97.6255,VALID,0,VALID,19.1207,VALID,36,VALID,0,
2012-07-17, 03:46:04,VALID,917.508,VALID,0,VALID,97.6178,VALID,0,VALID,19.1012,VALID,36,VALID,0,
2012-07-17, 03:47:04,VALID,917.53,VALID,0,VALID,97.595,VALID,0,VALID,19.1207,VALID,36,VALID,0,
2012-07-17, 03:48:04,VALID,917.515,VALID,0,VALID,97.6178,VALID,0,VALID,19.1207,VALID,36,VALID,0,
2012-07-17, 03:49:04,VALID,917.495,VALID,0,VALID,97.6255,VALID,0,VALID,19.1402,VALID,36,VALID,0,
2012-07-17, 03:50:04,VALID,917.492,VALID,0,VALID,97.6255,VALID,0,VALID,19.1207,VALID,35,VALID,0,
2012-07-17, 03:51:04,VALID,917.483,VALID,0,VALID,97.6178,VALID,0,VALID,19.1207,VALID,36,VALID,0,
2012-07-17, 03:52:04,VALID,917.509,VALID,0,VALID,97.6255,VALID,0,VALID,19.1207,VALID,36,VALID,0,
2012-07-17, 03:53:04,VALID,917.455,VALID,0,VALID,97.6407,VALID,0,VALID,19.1417,VALID,35,VALID,0,
2012-07-17, 03:54:04,VALID,917.453,VALID,0,VALID,97.6178,VALID,0,VALID,19.1402,VALID,36,VALID,0,
2012-07-17, 03:55:04,VALID,917.436,VALID,0,VALID,97.6407,VALID,0,VALID,19.1402,VALID,36,VALID,0,
2012-07-17, 03:56:04,VALID,917.428,VALID,0,VALID,97.6331,VALID,0,VALID,19.1402,VALID,36,VALID,0,
2012-07-17, 03:57:04,VALID,917.393,VALID,0,VALID,97.6255,VALID,0,VALID,19.1417,VALID,35,VALID,0,
2012-07-17, 03:58:04,VALID,917.407,VALID,0,VALID,97.6102,VALID,0,VALID,19.1597,VALID,36,VALID,0,
2012-07-17, 03:59:04,VALID,917.394,VALID,0,VALID,97.6178,VALID,0,VALID,19.1402,VALID,35,VALID,0,
2012-07-17, 04:00:04,VALID,917.348,VALID,0,VALID,97.6407,VALID,0,VALID,19.1402,VALID,36,VALID,0,
2012-07-17, 04:01:04,VALID,917.35,VALID,0,VALID,97.656,VALID,0,VALID,19.1612,VALID,36,VALID,0,